#timestamp,LO_Frequency,Hit,StdDev 
1581023155.1,286046999.1,P
1581023156.0,286046999.1,N
1581023175.8,286046995.1,P
1581023195.7,286046995.8,N
1581023215.5,286046994.0,Y
1581023235.3,286046997.2,P
1581023255.2,286046997.3,P
1581023275.0,286046999.5,P
1581023275.9,286046999.5,N
1581023295.8,286046997.5,N
1581023315.6,286046994.9,Y
1581023335.4,286046996.9,P
1581023355.3,286046997.0,P
1581023375.1,286046998.0,P
1581023395.9,286046996.4,Y
1581023415.7,286046995.2,P
1581023435.5,286046995.7,P
1581023455.4,286046995.9,P
1581023475.2,286046995.6,Y
1581023495.1,286046998.6,P
1581023496.0,286046998.6,N
1581023515.8,286046999.1,N
1581023535.6,286046999.0,N
1581023555.5,286047000.7,N
1581023575.3,286047002.1,N
1581023595.1,286047001.6,N
1581023615.9,286046999.8,N
1581023635.7,286046998.4,N
1581023655.6,286046999.2,N
1581023675.4,286046997.3,N
1581023695.2,286046998.0,N
1581023715.1,286046995.4,N
1581023716.0,286046995.4,N
1581023735.8,286046997.6,N
1581023755.6,286046997.9,N
1581023775.5,286046997.7,N
1581023795.3,286046997.2,N
1581023815.2,286046994.9,N
1581023835.9,286046997.8,N
1581023855.7,286046998.0,N
1581023875.6,286046997.0,N
1581023895.4,286046996.8,N
1581023915.2,286046997.0,N
1581023935.1,286046998.0,N
1581023936.0,286046998.0,N
1581023955.8,286046997.4,N
1581023975.7,286046997.8,N
1581023995.5,286046996.9,N
1581024015.3,286046997.5,N
1581024035.2,286046996.1,N
1581024055.0,286046993.7,Y
1581024055.9,286046993.7,P
1581024075.7,286046995.1,N
1581024095.6,286046995.5,N
1581024115.4,286046996.2,N
1581024135.3,286046996.1,N
1581024155.1,286046993.3,Y
1581024175.8,286046998.9,P
1581024195.7,286046998.2,N
1581024215.5,286046998.9,N
1581024235.4,286046998.9,N
1581024255.2,286046999.6,N
1581024275.0,286046996.7,N
1581024275.9,286046996.7,N
1581024295.8,286046996.8,N
1581024315.6,286046996.5,N
1581024335.4,286046998.6,N
1581024355.3,286047000.8,N
1581024375.1,286047001.2,N
1581024395.9,286046998.1,N
1581024415.7,286046999.8,N
1581024435.5,286047000.7,N
1581024455.4,286046998.9,N
1581024475.2,286047000.3,N
1581024495.1,286046998.6,N
1581024496.0,286046998.6,N
1581024515.8,286046998.5,N
1581024535.6,286047000.5,N
1581024555.5,286047001.0,N
1581024575.3,286047002.7,N
1581024595.1,286047002.6,N
1581024615.9,286047000.3,N
1581024635.7,286046998.3,N
1581024655.6,286046998.9,N
1581024675.4,286046999.5,N
1581024695.2,286046996.5,N
1581024715.1,286046999.5,N
1581024716.0,286046999.5,N
1581024735.8,286046996.5,N
1581024755.7,286046998.6,N
1581024775.5,286046999.0,N
1581024795.3,286046996.6,N
1581024815.2,286046999.4,N
1581024835.0,286046998.6,N
1581024835.9,286046998.6,N
1581024855.7,286047000.6,N
1581024875.6,286047000.8,N
1581024895.4,286047002.5,N
1581024915.3,286047003.8,N
1581024935.1,286047007.1,Y
1581024936.0,286047007.1,P
1581024955.8,286047007.1,N
1581024975.7,286047008.8,N
1581024995.5,286047008.8,N
1581025015.3,286047006.2,N
1581025035.2,286047010.2,Y
1581025055.0,286047005.3,P
1581025055.9,286047005.3,P
1581025075.8,286047003.5,P
1581025095.6,286047002.2,N
1581025115.4,286047001.8,N
1581025135.3,286047004.4,N
1581025155.1,286046999.9,N
1581025175.8,286046998.6,N
1581025195.7,286046997.4,N
1581025215.5,286046997.7,N
1581025235.4,286046995.0,N
1581025255.2,286046997.6,N
1581025275.0,286046997.1,N
1581025275.9,286046997.1,N
1581025295.8,286046994.9,N
1581025315.6,286046999.5,N
1581025335.5,286046998.2,N
1581025355.3,286046997.0,N
1581025375.1,286046997.5,N
1581025395.9,286046996.6,N
1581025415.7,286046995.0,N
1581025435.6,286046995.3,N
1581025455.4,286046994.9,N
1581025475.2,286046996.4,N
1581025495.1,286046996.3,N
1581025496.0,286046996.3,N
1581025515.8,286046995.9,N
1581025535.6,286046993.3,N
1581025555.5,286046993.8,N
1581025575.3,286046996.0,N
1581025595.2,286046995.2,N
1581025615.9,286046996.4,N
1581025635.7,286046996.2,N
1581025655.6,286046996.3,N
1581025675.4,286046995.3,N
1581025695.3,286046995.2,N
1581025715.1,286046995.0,Y
1581025716.0,286046995.0,P
1581025735.8,286046998.7,N
1581025755.7,286046998.9,N
1581025775.5,286047001.1,N
1581025795.3,286047001.0,N
1581025815.2,286047001.0,N
1581025835.0,286046999.7,N
1581025835